Wetbulb
38.67 33.76 28.95 32.19 34.35 33.26 32.22 30.12 30.63 31.60 33.82 31.89 31.67 32.12 36.14 37.39 35.35 33.96 34.69 34.20 35.48 36.17 37.13 39.24 40.18 39.99 39.36 39.16 39.93 39.71 39.40 39.37 38.33 36.76 37.44 38.30 38.74 40.04 41.48 46.30 47.01 48.23 49.42 50.06
34.64 31.20 35.39 37.03 36.37 34.74 33.23 30.38 30.20 32.52 33.78 32.46 32.05 33.35 37.31 35.22 33.81 34.29 35.05 34.50 34.79 35.84 36.15 38.12 38.07 37.84 38.17 37.98 38.14 38.43 38.83 38.22 37.63 37.73 37.95 39.06 39.20 41.02 44.61 46.91 47.69 48.92 48.84 49.01
31.67 34.27 37.63 36.60 33.40 33.10 31.71 29.99 29.20 30.41 33.22 32.83 31.25 31.15 32.83 33.41 34.21 35.07 35.01 34.28 34.34 36.17 36.22 36.41 37.14 36.95 36.30 36.35 36.38 37.80 37.81 37.14 37.79 38.79 39.70 39.97 40.07 40.53 44.71 44.76 45.38 46.90 48.58 48.75
33.91 36.43 35.87 33.19 33.18 33.42 29.21 32.72 32.34 31.63 28.73 26.77 30.86 25.97 31.29 31.51 32.77 33.71 34.02 33.81 34.60 35.71 35.88 36.29 36.73 35.93 35.89 35.99 35.99 37.29 37.34 36.80 38.33 39.46 38.71 37.72 37.85 39.16 43.17 43.92 43.69 45.00 48.04 46.40
30.93 32.97 32.35 31.97 32.73 33.71 31.00 33.80 31.77 30.71 28.30 27.04 26.84 24.78 30.79 29.65 31.59 33.29 34.03 34.64 35.00 35.84 36.32 36.66 36.89 37.76 36.72 35.77 35.11 35.49 36.05 36.45 38.28 39.24 38.88 37.95 37.99 39.98 42.03 43.71 44.50 44.39 45.85 47.43
30.56 35.54 34.80 33.39 33.94 33.80 34.82 32.70 32.41 31.32 28.08 20.51 26.59 25.50 29.41 29.63 32.23 31.17 33.04 35.07 36.12 35.82 36.25 36.20 36.99 37.45 35.98 35.08 34.54 34.42 34.72 35.43 38.20 38.98 38.72 38.71 37.95 38.72 38.96 39.43 40.90 44.02 45.20 46.29
29.63 30.33 33.75 35.10 30.52 33.30 31.64 27.29 17.75 19.97 18.79 22.90 25.62 23.96 30.80 33.02 34.68 34.31 34.60 34.75 35.42 35.95 35.54 35.42 35.65 35.23 35.21 34.70 34.62 34.64 33.54 34.76 37.86 38.41 38.24 39.21 38.62 38.32 37.86 38.07 38.08 40.84 40.32 42.21
24.97 22.32 30.48 33.43 30.52 28.98 28.69 27.78 22.30 17.85 20.12 24.02 24.33 24.81 32.86 34.25 34.27 34.39 34.91 35.11 35.12 35.62 35.86 35.83 35.81 35.44 35.31 35.24 34.45 33.82 32.97 35.63 37.72 37.87 37.76 38.73 39.01 38.29 38.46 38.08 38.14 38.58 40.06 42.57
25.46 26.18 31.60 32.32 32.26 30.69 28.15 25.14 29.96 21.98 16.24 20.93 26.29 30.40 35.57 33.28 32.93 31.21 33.32 33.38 34.72 35.78 35.71 35.52 35.62 35.09 35.08 34.35 33.98 32.36 33.23 36.63 37.44 37.21 37.29 37.89 38.79 38.31 38.15 39.50 40.73 39.04 39.71 43.24
32.38 23.55 28.06 30.45 31.62 30.36 28.03 30.03 23.50 22.74 16.85 17.51 23.89 27.50 30.74 30.33 32.92 33.25 32.93 32.86 34.48 35.31 35.37 35.20 35.03 34.85 34.73 34.17 33.39 31.78 34.96 36.66 36.88 36.85 37.32 39.44 38.18 38.31 40.03 40.48 40.38 41.71 42.41 42.49
33.64 30.53 25.08 28.43 26.51 26.64 26.15 23.46 25.49 27.08 25.90 21.32 19.98 28.83 37.03 35.98 34.52 34.11 33.61 34.32 34.73 35.00 35.46 34.91 34.46 34.64 34.27 33.15 31.56 32.19 35.51 36.42 36.76 37.69 38.44 39.41 37.74 38.21 40.24 41.48 41.96 42.76 43.15 43.56
34.56 29.02 21.44 25.24 27.91 29.79 26.78 26.80 27.61 23.37 20.77 22.00 24.67 28.57 37.76 38.37 36.44 35.64 34.52 35.32 34.70 35.50 35.36 34.76 33.95 33.10 32.38 31.61 30.91 32.47 35.07 36.32 36.29 37.76 39.76 38.91 37.67 39.03 40.95 40.24 42.15 42.61 42.66 43.71
35.36 26.84 19.31 23.28 27.11 27.70 26.50 27.90 29.08 29.09 26.28 20.13 23.30 28.25 38.08 36.28 34.65 34.39 35.07 34.64 35.42 35.41 34.38 33.78 32.69 31.98 31.58 30.63 30.64 32.19 34.81 35.73 36.07 37.67 39.73 38.75 37.28 38.28 41.49 41.67 41.84 42.36 42.87 43.84
37.92 26.91 24.84 23.44 26.89 27.59 23.65 25.88 28.06 26.97 19.92 24.00 25.39 29.82 37.81 35.20 33.25 34.52 35.22 35.08 34.33 34.12 34.55 33.49 32.50 32.16 31.58 30.83 30.28 32.48 34.40 35.34 35.71 37.07 39.05 38.03 37.67 40.70 41.12 41.42 41.51 42.11 43.11 44.18
34.07 23.96 23.40 26.78 29.32 28.07 28.14 26.92 25.15 24.46 29.46 25.03 26.53 27.90 36.59 38.80 34.63 33.25 35.62 35.82 32.58 30.58 31.23 32.03 31.83 31.73 31.32 30.35 30.00 32.91 34.21 34.80 35.69 38.11 37.59 36.23 39.81 40.82 41.10 40.86 41.19 41.36 41.79 42.63
32.86 24.39 23.72 20.74 25.34 27.58 26.36 28.34 25.39 25.22 23.26 23.60 28.81 28.56 36.43 39.90 37.85 34.17 35.32 35.84 34.50 33.97 32.50 33.58 32.24 31.55 31.32 30.27 29.72 33.12 31.87 33.75 36.20 35.56 35.48 39.09 40.17 40.18 40.17 40.37 40.71 40.96 41.33 41.88
30.36 26.71 23.40 22.53 22.09 26.65 24.90 23.97 27.11 26.97 27.44 29.91 26.31 33.89 39.41 37.83 38.85 38.92 38.29 37.86 37.28 37.51 37.65 35.13 35.26 32.77 32.20 30.94 31.23 33.30 33.80 34.37 35.84 34.66 36.11 38.23 38.23 38.78 39.22 39.60 40.37 40.25 40.48 41.19
29.02 28.71 29.25 19.53 24.45 20.05 29.92 30.78 30.82 30.40 30.26 32.28 32.39 35.03 38.48 39.53 41.46 41.44 40.64 40.96 40.59 39.35 38.54 38.56 36.83 33.47 31.84 30.54 31.52 33.41 34.20 34.27 34.85 34.29 37.84 37.54 37.63 36.54 36.15 36.87 39.41 39.27 39.92 39.92
35.19 31.47 27.26 22.71 21.14 26.87 31.01 30.67 30.21 29.75 32.09 34.76 33.97 37.13 39.04 38.47 37.77 37.75 41.27 41.50 42.55 41.36 40.52 39.66 38.22 35.26 32.17 31.35 33.46 34.13 32.71 32.49 33.13 35.00 37.09 36.43 36.41 36.04 36.27 36.30 37.09 37.76 38.02 37.35
35.18 34.96 30.59 28.12 20.66 16.70 28.36 34.26 34.33 34.72 29.98 37.46 36.55 36.97 37.62 37.67 32.87 38.22 41.71 41.35 41.63 41.23 40.23 38.08 36.32 34.04 32.18 31.97 34.91 33.85 33.13 33.43 32.93 35.88 35.44 35.68 35.88 35.94 35.75 35.29 34.81 33.70 34.20 33.74
28.75 30.00 26.68 27.28 25.72 25.55 32.90 34.11 34.79 26.55 31.32 38.15 37.30 37.46 37.52 35.56 39.50 40.49 40.03 38.24 37.48 38.18 36.47 35.66 34.61 33.71 32.77 33.30 34.51 33.41 33.32 34.83 33.60 34.88 34.80 34.83 35.29 35.17 35.02 34.54 34.27 34.19 33.78 33.28
26.61 26.12 26.42 28.80 26.20 22.17 34.18 32.56 31.36 36.11 36.95 37.06 38.17 38.14 38.02 38.34 38.47 38.06 38.19 36.32 34.68 34.57 34.12 34.15 33.91 32.82 31.27 33.74 34.70 32.98 33.20 33.02 33.76 34.83 34.14 33.34 33.45 33.99 34.17 34.43 33.58 33.16 33.46 32.55
26.42 28.95 26.34 28.69 28.27 34.38 34.20 35.35 37.26 37.63 37.75 37.44 38.81 39.80 39.66 38.25 38.32 38.28 36.53 34.90 34.11 33.58 32.77 32.02 32.19 29.95 30.85 33.07 34.59 33.06 32.20 31.96 33.88 34.42 33.76 33.67 33.38 33.45 33.22 34.36 33.90 33.87 33.49 31.03
28.03 30.95 26.78 27.55 31.64 33.89 35.36 37.00 37.61 38.57 38.26 39.31 40.16 40.21 39.71 39.76 39.86 36.72 35.23 34.05 33.32 31.93 31.20 29.48 29.85 29.72 30.02 32.32 32.93 34.31 31.82 32.73 34.27 34.36 33.63 33.17 33.36 32.75 32.75 32.91 32.95 34.42 34.27 32.78
27.66 29.59 25.06 29.01 30.56 32.87 35.01 36.20 38.94 39.38 39.95 39.19 39.51 40.75 40.30 40.55 40.51 36.99 34.60 32.93 32.32 31.69 28.29 29.82 30.36 30.00 30.27 31.35 31.27 31.51 32.60 33.73 34.36 34.20 33.17 32.68 32.59 32.59 30.98 30.16 31.66 31.49 30.36 32.90
27.98 28.35 29.23 28.70 33.80 34.36 35.81 37.74 38.81 37.97 38.19 39.00 38.32 36.67 36.45 37.32 37.98 35.93 34.11 32.87 31.64 29.96 28.25 27.64 28.53 30.15 29.97 31.63 30.71 31.72 33.52 34.72 35.95 33.70 32.76 32.03 31.65 31.65 31.46 30.98 30.73 34.25 34.33 34.88
MSLP
1015.07 1015.67 1015.25 1014.63 1014.45 1014.17 1014.17 1014.04 1014.10 1013.66 1013.58 1013.80 1013.20 1012.58 1010.95 1010.40 1010.55 1010.85 1011.13 1011.40 1011.57 1012.00 1012.58 1013.15 1013.68 1014.23 1014.71 1015.11 1015.23 1015.19 1015.38 1015.61 1015.82 1016.04 1016.20 1016.23 1016.13 1015.77 1015.40 1015.01 1014.65 1014.28 1013.98 1013.81
1015.61 1015.13 1014.46 1014.49 1014.41 1014.34 1014.37 1014.26 1014.19 1013.87 1013.88 1014.05 1013.29 1012.00 1010.45 1010.18 1010.13 1010.36 1010.59 1010.91 1011.23 1012.11 1012.96 1013.67 1014.24 1014.48 1014.79 1015.13 1015.29 1015.34 1015.45 1015.77 1015.93 1016.02 1016.01 1016.13 1016.03 1015.65 1015.29 1015.01 1014.64 1014.33 1014.13 1013.95
1015.23 1014.48 1014.02 1014.42 1014.40 1014.43 1014.39 1014.49 1014.45 1014.59 1014.36 1014.18 1013.94 1011.96 1010.60 1010.09 1010.13 1010.20 1010.46 1010.88 1011.49 1012.10 1012.97 1013.89 1014.46 1014.54 1014.92 1015.19 1015.24 1015.39 1015.63 1015.79 1015.90 1015.91 1015.94 1015.92 1015.77 1015.53 1015.13 1015.01 1014.78 1014.57 1014.20 1014.01
1015.21 1014.44 1014.33 1014.60 1014.72 1014.62 1014.76 1014.56 1014.85 1015.16 1015.29 1015.32 1014.63 1013.45 1011.21 1010.32 1010.09 1010.26 1010.57 1011.19 1011.95 1012.72 1013.04 1013.67 1014.24 1014.63 1014.89 1015.15 1015.39 1015.49 1015.71 1015.81 1015.78 1015.87 1015.82 1015.90 1015.98 1015.88 1015.50 1015.21 1014.89 1014.72 1014.34 1014.13
1014.96 1014.88 1014.99 1015.03 1014.96 1014.91 1015.14 1015.27 1015.73 1016.10 1016.14 1016.09 1015.35 1015.06 1010.97 1010.59 1010.06 1009.95 1010.59 1011.13 1011.85 1012.62 1012.84 1013.36 1013.83 1014.24 1014.80 1015.16 1015.45 1015.61 1015.69 1015.87 1015.79 1015.72 1015.88 1016.29 1016.03 1015.79 1015.62 1015.33 1015.06 1014.92 1014.65 1014.23
1015.54 1015.46 1015.44 1015.42 1015.74 1015.66 1015.85 1016.21 1016.73 1017.31 1017.28 1016.96 1015.43 1014.84 1011.47 1010.45 1009.49 1009.48 1010.21 1010.95 1011.59 1012.19 1012.60 1013.27 1013.71 1014.22 1014.91 1015.35 1015.56 1015.65 1015.82 1015.96 1015.86 1015.96 1016.18 1016.08 1016.19 1016.40 1016.27 1015.85 1015.55 1015.29 1014.97 1014.58
1016.04 1015.99 1016.01 1015.92 1016.29 1016.41 1016.55 1017.37 1018.07 1018.47 1018.35 1016.99 1015.65 1014.93 1010.93 1009.39 1008.78 1008.93 1009.72 1010.59 1011.24 1011.84 1012.57 1013.35 1013.84 1014.52 1015.10 1015.49 1015.57 1015.70 1015.87 1016.11 1016.17 1016.30 1016.25 1016.34 1016.33 1016.33 1016.29 1016.32 1016.07 1015.80 1015.52 1014.99
1016.14 1016.69 1016.40 1016.33 1016.34 1016.22 1016.98 1017.32 1017.89 1018.00 1018.55 1017.16 1015.95 1013.66 1009.80 1008.75 1008.42 1008.44 1009.03 1009.99 1011.03 1011.63 1012.42 1013.10 1013.64 1014.23 1014.80 1015.35 1015.50 1015.67 1015.96 1016.11 1016.32 1016.37 1016.41 1016.47 1016.25 1016.21 1016.00 1015.96 1016.01 1015.72 1015.49 1015.17
1015.67 1016.40 1016.87 1016.93 1017.03 1016.92 1017.34 1017.34 1017.02 1017.76 1018.85 1017.21 1014.51 1011.99 1009.17 1008.51 1008.55 1008.90 1009.33 1010.46 1010.93 1011.30 1012.08 1012.77 1013.31 1013.91 1014.64 1015.17 1015.40 1015.71 1015.99 1016.28 1016.37 1016.47 1016.70 1016.53 1016.36 1016.17 1016.02 1015.69 1015.53 1015.59 1015.40 1015.05
1014.45 1016.11 1017.44 1017.51 1017.43 1017.35 1017.30 1017.44 1017.44 1017.60 1017.87 1016.69 1014.12 1012.17 1009.61 1008.77 1008.52 1008.99 1009.55 1010.19 1010.58 1011.05 1011.78 1012.51 1013.14 1013.67 1014.52 1014.95 1015.35 1015.88 1016.10 1016.24 1016.30 1016.49 1016.52 1016.20 1016.26 1015.87 1015.77 1015.62 1015.71 1015.71 1015.53 1015.19
1014.43 1015.32 1017.94 1017.89 1017.64 1017.25 1017.72 1017.31 1017.37 1017.28 1016.45 1015.74 1014.03 1010.64 1007.76 1007.54 1007.57 1008.13 1008.81 1009.55 1009.98 1010.69 1011.41 1012.13 1012.89 1013.58 1014.49 1015.05 1015.39 1015.89 1016.09 1016.31 1016.26 1016.32 1016.39 1016.14 1016.24 1015.90 1015.66 1015.41 1015.64 1015.57 1015.33 1015.18
1014.31 1015.58 1017.28 1017.28 1017.32 1017.43 1017.37 1016.98 1016.70 1016.73 1016.41 1015.76 1013.98 1010.13 1007.45 1007.26 1007.13 1007.71 1008.21 1009.03 1009.61 1010.30 1010.99 1011.89 1012.79 1013.59 1014.52 1015.18 1015.51 1016.01 1015.98 1016.22 1016.26 1016.15 1016.17 1016.29 1016.29 1015.81 1015.61 1015.51 1015.37 1015.25 1014.92 1014.94
1014.25 1015.36 1016.91 1017.43 1017.81 1017.66 1017.17 1016.54 1016.08 1016.12 1015.78 1015.36 1013.78 1010.23 1007.78 1007.54 1007.40 1007.62 1008.17 1008.82 1009.40 1010.22 1011.12 1012.06 1013.01 1013.69 1014.37 1015.06 1015.52 1015.95 1016.07 1016.05 1016.33 1016.13 1016.25 1016.34 1016.28 1015.78 1015.53 1015.33 1015.41 1014.85 1014.57 1014.41
1014.15 1015.35 1016.09 1016.48 1016.22 1016.32 1016.74 1016.01 1015.67 1015.75 1015.71 1014.51 1012.64 1010.65 1008.61 1007.97 1007.77 1007.89 1008.13 1008.57 1009.32 1010.09 1010.98 1011.81 1012.73 1013.39 1014.12 1014.80 1015.38 1015.81 1016.01 1015.86 1016.35 1016.28 1016.53 1016.40 1016.12 1015.84 1015.49 1015.20 1015.05 1015.12 1014.85 1014.32
1014.95 1015.69 1016.12 1016.01 1015.91 1015.81 1015.43 1015.30 1015.23 1015.54 1014.34 1013.65 1012.40 1011.09 1009.10 1008.17 1007.77 1008.00 1008.43 1008.76 1009.61 1010.08 1010.99 1011.60 1012.18 1013.09 1013.85 1014.51 1015.29 1015.76 1015.92 1015.87 1016.21 1016.32 1016.61 1016.53 1016.08 1015.84 1015.57 1015.21 1015.09 1014.89 1015.25 1015.16
1015.55 1015.90 1016.40 1016.01 1015.65 1015.54 1014.90 1014.03 1014.10 1014.24 1013.93 1013.14 1011.92 1010.40 1008.63 1007.60 1007.59 1007.66 1007.93 1008.67 1009.37 1009.51 1010.04 1010.84 1011.47 1012.37 1013.31 1013.84 1014.70 1015.50 1015.79 1015.64 1016.17 1016.40 1016.52 1016.43 1016.23 1015.95 1015.67 1015.40 1015.41 1015.46 1015.27 1015.41
1015.94 1016.21 1016.68 1016.21 1015.80 1015.22 1013.72 1011.60 1012.13 1012.22 1011.87 1011.21 1010.37 1008.59 1007.01 1007.36 1007.25 1006.93 1006.96 1007.95 1008.32 1008.40 1008.79 1009.75 1010.44 1011.16 1012.31 1013.13 1013.90 1015.05 1015.57 1015.49 1015.96 1016.36 1016.51 1016.45 1016.38 1016.25 1015.91 1015.73 1015.67 1015.80 1015.92 1016.00
1015.60 1015.94 1016.31 1016.37 1015.76 1014.12 1010.11 1009.48 1009.37 1009.62 1009.26 1008.99 1007.93 1006.90 1005.62 1005.30 1005.39 1005.62 1005.80 1006.12 1006.79 1007.34 1007.72 1008.22 1009.38 1010.62 1011.61 1012.64 1013.41 1014.62 1015.44 1015.59 1015.96 1016.53 1016.47 1016.55 1016.58 1016.51 1016.26 1016.08 1016.02 1016.09 1016.20 1016.42
1015.15 1015.36 1015.65 1015.65 1014.93 1011.80 1009.13 1008.80 1008.70 1008.47 1007.30 1006.72 1006.63 1005.92 1004.92 1005.17 1005.18 1005.02 1004.93 1004.91 1005.27 1005.74 1006.16 1007.03 1007.98 1009.49 1010.89 1012.05 1012.83 1014.23 1015.27 1015.49 1015.91 1016.34 1016.38 1016.46 1016.71 1016.80 1016.80 1016.72 1016.71 1016.78 1016.93 1017.30
1014.71 1014.81 1014.78 1014.42 1013.56 1011.66 1008.78 1007.48 1007.06 1007.19 1005.92 1005.16 1004.92 1004.63 1004.60 1005.03 1005.09 1004.01 1003.71 1003.98 1004.58 1005.10 1005.69 1006.92 1007.85 1009.12 1010.35 1011.63 1012.33 1013.86 1014.90 1015.23 1015.76 1016.09 1016.41 1016.57 1016.75 1017.03 1017.16 1017.39 1017.42 1017.63 1017.80 1018.13
1014.01 1013.97 1013.64 1013.28 1012.26 1010.15 1008.06 1007.21 1006.97 1006.90 1005.81 1004.32 1004.42 1004.71 1004.52 1005.02 1004.07 1003.07 1002.90 1003.33 1003.85 1004.68 1005.69 1006.80 1007.73 1008.72 1009.59 1011.04 1011.93 1013.43 1014.57 1014.91 1015.33 1015.82 1016.34 1016.65 1016.91 1017.13 1017.35 1017.71 1018.01 1018.32 1018.46 1018.97
1013.09 1012.98 1012.65 1012.58 1011.64 1009.42 1007.17 1007.48 1007.22 1005.99 1004.97 1004.93 1004.81 1004.64 1004.61 1004.23 1003.95 1004.18 1004.20 1004.36 1004.89 1005.32 1006.25 1006.90 1007.91 1008.91 1009.76 1010.71 1011.62 1012.90 1014.05 1014.61 1015.10 1015.82 1016.40 1016.98 1017.20 1017.41 1017.51 1017.77 1018.45 1018.90 1019.18 1019.51
1012.07 1010.91 1011.01 1010.42 1008.39 1007.19 1006.89 1006.57 1006.02 1005.81 1005.69 1005.36 1005.32 1004.79 1004.64 1004.52 1004.41 1004.41 1004.58 1004.93 1005.17 1005.98 1006.76 1007.24 1008.09 1009.04 1009.82 1010.54 1011.22 1012.17 1013.32 1014.19 1015.16 1015.78 1016.51 1016.97 1017.56 1017.65 1017.77 1017.98 1018.52 1018.92 1019.42 1019.95
1010.96 1010.27 1010.21 1009.69 1007.65 1007.15 1006.57 1006.13 1005.89 1005.66 1005.61 1005.64 1005.35 1005.06 1004.21 1004.05 1003.94 1004.46 1004.92 1005.39 1005.92 1006.79 1007.17 1007.58 1008.42 1009.25 1009.75 1010.46 1011.20 1011.76 1012.98 1013.76 1015.01 1015.53 1016.33 1016.92 1017.62 1018.17 1018.35 1018.37 1018.79 1019.33 1019.66 1020.20
1009.91 1009.81 1009.46 1008.15 1007.66 1007.35 1006.73 1005.91 1005.20 1005.26 1005.94 1005.80 1005.16 1004.41 1003.92 1004.07 1003.93 1004.59 1004.93 1005.61 1006.23 1006.99 1007.75 1007.97 1008.20 1008.88 1009.73 1010.45 1011.17 1011.74 1012.77 1013.44 1014.69 1015.44 1016.28 1017.06 1017.56 1018.07 1018.61 1019.14 1019.22 1019.62 1020.22 1020.39
1009.23 1008.75 1008.66 1007.81 1007.55 1007.52 1007.05 1006.39 1005.96 1005.70 1005.56 1005.50 1005.38 1005.15 1004.65 1004.75 1004.72 1004.70 1004.83 1005.33 1006.09 1006.88 1007.60 1008.31 1008.60 1008.90 1009.44 1010.21 1011.06 1011.63 1012.49 1012.98 1013.94 1015.22 1015.90 1016.83 1017.43 1018.10 1018.81 1019.14 1019.60 1019.81 1019.92 1020.45
Wind_Speed
2 3 8 11 8 1 1 1 5 5 1 2 7 11 20 9 7 8 9 8 9 8 3 7 7 8 7 6 7 6 5 3 2 2 2 1 2 2 2 2 3 4 4 4
3 9 7 4 5 5 4 3 6 4 2 1 7 17 15 5 2 4 6 5 4 7 7 7 7 6 6 7 6 5 4 3 2 1 1 1 2 3 2 2 3 3 4 4
7 2 5 4 3 4 4 5 4 4 5 3 7 9 4 1 1 1 1 3 4 10 10 7 7 7 6 7 7 6 5 4 3 2 1 1 1 2 0 2 2 3 3 3
6 2 5 4 4 6 3 2 2 1 3 3 4 8 7 3 5 3 3 3 5 7 5 6 8 6 7 6 6 6 5 5 3 3 2 2 1 0 1 2 1 3 3 4
6 5 4 4 4 3 4 2 3 1 2 3 1 2 9 3 6 7 8 7 7 9 8 9 9 7 6 7 7 5 5 4 4 4 3 2 0 1 2 2 3 3 3 3
1 1 1 2 3 3 5 4 6 4 2 3 2 5 8 4 6 1 3 8 8 8 7 6 5 7 6 5 5 5 5 3 4 4 3 1 2 4 4 4 3 3 3 3
3 2 0 2 4 5 3 5 3 5 4 7 1 2 12 5 7 5 10 10 9 8 7 8 9 7 6 7 6 5 6 4 3 5 2 2 2 2 2 4 3 4 3 3
7 6 8 3 2 6 6 6 7 8 4 3 1 7 8 5 4 4 8 8 7 8 7 8 9 8 8 7 7 6 5 4 5 4 1 2 2 1 1 1 2 2 1 3
6 4 3 4 2 2 5 5 2 7 1 4 5 8 9 4 4 2 7 7 9 8 9 9 8 8 7 7 7 7 6 4 5 3 3 2 2 1 2 3 3 1 3 3
2 1 2 3 1 1 3 2 3 4 3 4 5 6 8 6 10 7 7 10 9 8 8 7 7 8 6 6 5 5 5 6 5 4 3 3 1 2 4 3 4 3 3 4
4 4 3 1 6 7 2 2 2 1 4 7 2 8 8 10 10 13 11 11 10 9 9 8 7 7 7 6 6 6 6 6 6 4 2 1 1 4 4 3 3 2 3 3
4 4 4 7 2 1 1 4 6 5 6 2 2 9 2 7 6 7 9 10 7 8 8 8 8 8 8 7 6 6 6 6 5 4 3 1 2 4 3 4 3 2 3 2
6 3 2 6 3 2 6 7 6 2 3 6 6 8 3 5 5 3 7 8 8 8 7 7 8 8 8 7 7 6 6 6 4 5 3 1 2 3 3 3 2 4 4 3
5 2 6 7 4 5 4 5 7 5 4 5 8 6 6 8 7 6 5 7 8 8 9 8 7 8 8 7 7 7 6 6 5 5 4 2 4 2 3 2 2 3 3 4
2 4 4 5 5 5 6 8 7 11 16 8 5 9 12 8 9 7 6 5 6 7 7 9 9 9 8 8 7 6 6 6 5 5 5 4 4 1 1 2 4 5 5 5
1 2 2 4 1 4 6 10 5 9 4 6 15 12 12 12 4 5 9 8 10 10 11 10 9 9 11 11 9 7 6 7 5 5 5 4 2 1 1 3 4 5 6 6
5 4 2 7 1 3 12 10 11 8 7 10 15 19 23 7 8 10 10 9 12 13 12 12 13 13 12 13 12 10 8 6 7 5 5 3 1 2 3 3 6 6 7 7
6 5 3 3 2 6 7 1 5 14 8 15 5 10 17 20 18 9 9 11 13 12 11 11 11 10 10 10 10 9 8 7 7 5 4 3 3 2 3 5 7 7 7 8
6 5 3 4 5 9 15 5 8 9 8 18 20 19 21 3 2 7 10 12 13 12 11 9 11 12 12 14 13 12 8 7 8 7 5 5 4 4 3 5 7 7 9 9
12 7 6 4 5 9 4 7 4 4 15 9 16 17 13 6 6 14 11 8 12 9 6 8 10 11 14 14 15 14 11 10 10 8 6 5 5 5 5 5 7 4 8 8
8 7 13 8 4 10 8 3 3 7 7 8 4 2 8 7 14 5 4 5 3 6 9 10 12 14 15 15 16 14 12 13 9 7 6 5 5 7 6 5 5 6 9 8
12 9 5 7 7 15 6 3 7 2 5 3 3 3 6 8 8 5 7 6 6 7 8 9 12 12 13 15 16 15 14 9 10 9 7 6 4 5 6 9 6 5 7 9
8 9 8 11 9 3 2 4 3 3 2 4 5 5 4 7 9 8 7 7 6 7 7 6 10 12 12 14 14 16 12 13 11 11 9 7 5 6 5 9 8 7 5 6
5 6 4 3 8 11 8 6 6 5 5 4 6 9 4 5 7 6 6 5 5 6 7 6 11 12 13 12 11 12 14 13 13 12 10 7 7 5 4 4 4 4 5 5
7 8 6 10 5 6 9 6 9 3 5 7 7 7 5 7 12 5 5 7 6 5 2 7 11 12 13 12 10 12 13 15 13 11 10 8 7 7 6 4 4 5 3 3
5 7 7 6 4 3 5 8 8 7 8 7 4 5 4 5 9 5 5 5 6 7 6 5 6 10 13 13 12 12 13 15 16 12 10 8 7 6 6 7 7 7 9 11
Wind_Direction
217 128 209 212 199 110 89 219 261 279 184 255 247 269 278 295 253 254 250 242 229 221 160 129 130 134 126 133 144 145 143 159 99 46 35 11 331 309 324 320 327 326 341 359
67 237 212 228 193 201 228 244 263 270 207 270 307 285 281 277 293 212 179 199 206 133 128 135 143 150 163 166 161 142 143 132 123 142 198 188 228 268 244 297 315 5 348 12
169 227 131 172 172 169 214 198 233 247 314 238 320 291 327 297 288 80 101 79 141 163 155 165 177 176 164 167 164 156 152 144 140 137 88 329 320 327 119 343 321 346 340 359
236 250 163 170 215 153 251 175 150 54 41 258 18 283 302 300 268 243 235 114 168 176 165 170 185 178 176 175 156 147 148 144 149 135 129 163 157 104 308 281 289 309 14 352
237 164 167 170 194 182 214 107 109 104 93 20 324 70 269 331 278 244 221 214 199 207 190 188 188 171 163 151 159 159 145 147 157 145 123 88 219 348 310 356 35 1 12 10
62 329 214 176 76 32 136 79 42 46 73 18 230 137 283 207 217 259 195 210 209 205 193 154 141 139 145 157 157 159 149 176 158 125 111 120 59 354 347 1 0 11 2 357
360 213 306 148 94 24 82 80 333 351 13 216 90 91 246 263 248 208 196 202 210 203 170 162 162 165 160 174 178 166 155 171 151 118 156 84 47 34 26 348 344 4 352 334
156 293 171 178 209 173 177 167 167 201 194 228 93 231 251 227 293 233 185 176 188 187 178 183 183 179 177 174 182 169 165 148 131 134 121 69 65 57 135 143 296 291 320 296
141 271 348 47 354 83 199 194 197 103 33 50 219 280 297 241 258 140 160 172 204 201 192 196 190 179 173 169 188 173 165 141 132 139 90 83 70 2 280 245 237 245 272 271
203 65 344 317 274 81 189 313 85 341 139 239 280 277 241 240 229 206 199 210 214 207 196 189 184 167 167 167 169 162 166 151 139 126 171 161 134 259 270 287 298 304 289 288
135 138 301 54 203 183 147 275 240 233 163 173 193 256 213 213 205 201 203 212 205 197 202 182 176 155 153 155 157 165 156 147 137 150 167 193 285 291 286 277 321 326 286 264
182 117 176 196 218 224 275 229 186 143 248 255 166 272 236 240 224 204 203 208 206 203 200 173 160 153 156 168 162 175 165 149 145 144 161 201 319 308 302 327 317 284 278 270
182 226 34 347 15 349 216 203 209 133 81 202 162 261 347 304 283 224 198 202 203 201 177 156 152 170 166 172 167 173 170 151 154 139 164 224 270 289 307 311 345 337 327 309
115 123 173 189 155 134 220 253 222 163 135 204 217 286 285 268 252 242 196 191 200 195 184 171 171 179 167 170 169 172 173 149 157 140 174 195 264 288 299 311 18 77 9 10
73 210 166 253 242 199 224 234 185 205 227 205 260 208 255 260 242 238 237 178 192 208 202 192 188 180 172 164 168 169 170 147 162 149 152 217 257 286 79 12 45 48 65 63
85 254 132 273 255 219 262 240 212 220 222 263 260 270 241 269 256 252 225 198 214 215 215 205 196 173 177 171 169 164 175 150 160 159 168 216 226 143 86 71 64 71 58 71
177 160 90 262 9 339 282 202 205 191 198 193 221 230 244 247 247 242 229 209 223 221 208 205 201 188 175 174 162 168 173 151 145 158 185 192 189 159 111 86 83 73 80 78
171 148 152 253 41 219 245 179 183 209 220 223 240 230 234 233 240 246 214 209 218 222 213 202 186 178 161 160 144 138 158 153 139 163 176 168 156 131 106 92 89 73 70 73
188 161 196 201 207 312 295 195 178 178 260 212 224 243 249 227 225 267 233 221 219 216 209 199 174 165 153 161 149 147 154 150 148 169 174 163 160 133 114 91 98 86 93 80
201 204 207 172 207 220 255 326 121 89 279 236 203 231 248 181 245 260 196 206 225 212 172 160 146 146 152 159 149 150 163 160 168 168 170 157 143 134 113 105 95 69 86 89
186 191 221 229 253 280 248 226 178 127 242 14 153 218 194 192 218 275 190 202 196 173 154 138 146 162 161 155 151 154 162 174 169 145 143 146 141 128 113 94 86 103 95 87
184 190 189 203 222 254 184 65 200 224 346 57 53 219 260 255 281 254 246 220 186 154 140 146 145 154 153 156 155 154 172 161 152 143 138 131 128 121 115 118 104 85 109 107
202 196 186 195 210 239 190 253 281 358 313 331 319 323 269 272 277 262 237 218 193 172 151 136 145 143 155 161 165 160 165 150 151 144 146 139 132 127 131 130 128 119 109 105
245 199 220 87 247 246 263 257 247 255 250 245 254 275 273 270 279 271 241 213 189 180 165 141 142 157 159 166 165 158 152 149 155 150 145 137 133 124 100 86 86 109 121 118
197 154 188 257 327 318 280 246 265 167 237 260 240 237 259 301 303 240 219 211 197 178 150 163 164 163 165 162 156 148 154 154 153 148 142 139 136 134 113 77 99 107 69 71
190 189 196 233 212 259 292 329 336 325 326 342 312 294 267 260 274 266 232 208 184 173 153 166 168 162 161 163 158 155 160 160 160 158 151 154 145 141 137 131 114 117 147 145